AURA

Last updated on Sat Sep 12 2026 00:02:45 GMT+0000 (Coordinated Universal Time)

1 28376U 04026A 26254.59903582 .00000499 00000+0 11056-3 0 9995 2 28376 98.3507 211.8096 0001557 70.8359 289.3010 14.61436522178831
UTC large
Height (km)
Speed (km/s)
/
Latitude / Longitude
Inclination (degrees)
Orbital Period (minutes)
Azimuth
Elevation
Range (km)
Doppler Factor

Next 0 passes for location: London (51.5072 / 0.1276)

No passes found over London.
AURA